Terug naar catalogus

DELTA 1 DEB

ActiefSSO
NORAD 27576·DEBRIS·🇺🇸 United States

Gelanceerd Jun 12, 1975 vanaf Vandenberg Space Force Base

Loading…

Volgende Passages (komende 24 uur)

TLE

VersSource: Space-Track

Epoch: Sep 14, 2026, 08:40 UTC

1 27576U 75052LD  26257.36161514 -.00000005  00000-0  41020-4 0  9992
2 27576  99.2804  99.2451 0117397 109.3785  64.6689 13.68151357772614

Volg DELTA 1 DEB in realtime met AllMySat

Download on the App Store